When you browse on this site, cookies collect data to enhance your experience and personalize the content and advertising you see.
Visit our Privacy Policy to learn more. By continuing to use the site, you agree to this use of cookies and data.
  • en France
  • Liste des pays
  • À 7 jours
  • Température de l'eau
  • Carte météo
  • Widgets météo
  • user-avatar
    Se connecter

    Météo par heure à Wichita Falls

    Ce jour, 1 Juin, Lundi

    Heure Température Précipitation Vent Pression Humidité
    00:00 +20°C° 0 mm 3 m/s 739 mmHg 82%
    01:00 +19°C° 0 mm 2 m/s 739 mmHg 83%
    02:00 +19°C° 0 mm 2 m/s 739 mmHg 84%
    03:00 +19°C° 0 mm 2 m/s 739 mmHg 84%
    04:00 +19°C° 0 mm 2 m/s 739 mmHg 84%
    05:00 +19°C° 0 mm 2 m/s 739 mmHg 84%
    06:00 +21°C° 0 mm 2 m/s 740 mmHg 78%
    07:00 +22°C° 0 mm 3 m/s 740 mmHg 71%
    08:00 +25°C° 0 mm 3 m/s 740 mmHg 65%
    09:00 +26°C° 0 mm 3 m/s 740 mmHg 60%
    10:00 +28°C° 0 mm 3 m/s 740 mmHg 55%
    11:00 +30°C° 0 mm 3 m/s 740 mmHg 50%
    12:00 +30°C° 0 mm 3 m/s 739 mmHg 48%
    13:00 +32°C° 0 mm 4 m/s 738 mmHg 47%
    14:00 +33°C° 0 mm 5 m/s 738 mmHg 45%
    15:00 +32°C° 0 mm 5 m/s 738 mmHg 49%
    16:00 +30°C° 0 mm 5 m/s 737 mmHg 53%
    17:00 +30°C° 0 mm 5 m/s 737 mmHg 57%
    18:00 +28°C° 0 mm 5 m/s 737 mmHg 64%
    19:00 +26°C° 0 mm 4 m/s 737 mmHg 71%
    20:00 +25°C° 0 mm 4 m/s 737 mmHg 77%
    21:00 +23°C° 0 mm 4 m/s 737 mmHg 80%
    22:00 +23°C° 0 mm 4 m/s 737 mmHg 83%
    23:00 +22°C° 0 mm 4 m/s 738 mmHg 86%

    Demain, 2 Juin, Mardi

    Heure Température Précipitation Vent Pression Humidité
    00:00 +22°C° 0 mm 3 m/s 737 mmHg 88%
    01:00 +21°C° 0 mm 3 m/s 737 mmHg 90%
    02:00 +21°C° 0 mm 3 m/s 737 mmHg 92%
    03:00 +21°C° 0 mm 3 m/s 737 mmHg 92%
    04:00 +21°C° 0 mm 3 m/s 737 mmHg 93%
    05:00 +21°C° 0 mm 3 m/s 737 mmHg 94%
    06:00 +24°C° 0 mm 3 m/s 737 mmHg 86%
    07:00 +26°C° 0 mm 4 m/s 737 mmHg 78%
    08:00 +28°C° 0 mm 5 m/s 738 mmHg 70%
    09:00 +29°C° 0 mm 5 m/s 737 mmHg 67%
    10:00 +30°C° 0 mm 5 m/s 737 mmHg 63%
    11:00 +32°C° 0 mm 5 m/s 737 mmHg 60%
    12:00 +32°C° 0.1 mm 5 m/s 736 mmHg 57%
    13:00 +33°C° 0.1 mm 5 m/s 736 mmHg 54%
    14:00 +34°C° 0.1 mm 5 m/s 735 mmHg 51%
    15:00 +33°C° 0 mm 5 m/s 735 mmHg 53%
    16:00 +33°C° 0 mm 6 m/s 735 mmHg 54%
    17:00 +33°C° 0 mm 6 m/s 734 mmHg 56%
    18:00 +30°C° 0 mm 5 m/s 735 mmHg 61%
    19:00 +29°C° 0 mm 5 m/s 735 mmHg 67%
    20:00 +27°C° 0 mm 5 m/s 735 mmHg 73%
    21:00 +27°C° 0.1 mm 5 m/s 735 mmHg 74%
    22:00 +26°C° 0.1 mm 5 m/s 735 mmHg 75%
    23:00 +26°C° 0.1 mm 6 m/s 735 mmHg 76%

    Après-demain, 3 Juin, Mercredi

    Heure Température Précipitation Vent Pression Humidité
    00:00 +25°C° 0.2 mm 5 m/s 735 mmHg 79%
    01:00 +25°C° 0.2 mm 5 m/s 735 mmHg 81%
    02:00 +23°C° 0.2 mm 4 m/s 734 mmHg 84%
    03:00 +23°C° 0 mm 4 m/s 734 mmHg 85%
    04:00 +23°C° 0 mm 4 m/s 734 mmHg 86%
    05:00 +24°C° 0 mm 3 m/s 734 mmHg 87%
    06:00 +26°C° 0 mm 4 m/s 734 mmHg 79%
    07:00 +28°C° 0 mm 4 m/s 734 mmHg 71%
    08:00 +30°C° 0 mm 5 m/s 735 mmHg 63%
    09:00 +33°C° 0 mm 4 m/s 734 mmHg 57%
    10:00 +34°C° 0 mm 4 m/s 734 mmHg 51%
    11:00 +36°C° 0 mm 4 m/s 734 mmHg 45%
    12:00 +36°C° 0 mm 4 m/s 733 mmHg 43%
    13:00 +37°C° 0 mm 5 m/s 733 mmHg 42%
    14:00 +37°C° 0 mm 5 m/s 732 mmHg 41%
    15:00 +36°C° 0 mm 5 m/s 732 mmHg 44%
    16:00 +36°C° 0 mm 6 m/s 731 mmHg 47%
    17:00 +35°C° 0 mm 6 m/s 731 mmHg 50%
    18:00 +33°C° 0 mm 6 m/s 731 mmHg 54%
    19:00 +32°C° 0 mm 6 m/s 731 mmHg 58%
    20:00 +29°C° 0 mm 6 m/s 731 mmHg 63%
    21:00 +28°C° 0 mm 5 m/s 731 mmHg 65%
    22:00 +28°C° 0 mm 5 m/s 731 mmHg 67%
    23:00 +27°C° 0 mm 5 m/s 731 mmHg 69%

    4 Juin, Jeudi

    Heure Température Précipitation Vent Pression Humidité
    00:00 +27°C° 0 mm 5 m/s 731 mmHg 71%
    01:00 +26°C° 0 mm 4 m/s 731 mmHg 73%
    02:00 +26°C° 0 mm 4 m/s 731 mmHg 76%
    03:00 +26°C° 0 mm 3 m/s 731 mmHg 78%
    04:00 +25°C° 0 mm 3 m/s 731 mmHg 80%
    05:00 +25°C° 0 mm 3 m/s 732 mmHg 82%
    06:00 +27°C° 0 mm 3 m/s 732 mmHg 74%
    07:00 +29°C° 0 mm 4 m/s 732 mmHg 66%
    08:00 +33°C° 0 mm 4 m/s 733 mmHg 58%
    09:00 +34°C° 0 mm 4 m/s 732 mmHg 52%
    10:00 +36°C° 0 mm 4 m/s 732 mmHg 46%
    11:00 +38°C° 0 mm 4 m/s 732 mmHg 40%
    12:00 +38°C° 0 mm 4 m/s 731 mmHg 38%
    13:00 +40°C° 0 mm 4 m/s 731 mmHg 36%
    14:00 +41°C° 0 mm 5 m/s 730 mmHg 33%
    15:00 +40°C° 0 mm 4 m/s 730 mmHg 37%
    16:00 +38°C° 0 mm 4 m/s 730 mmHg 40%
    17:00 +37°C° 0 mm 4 m/s 730 mmHg 44%
    18:00 +35°C° 0.1 mm 4 m/s 731 mmHg 50%
    19:00 +33°C° 0.1 mm 5 m/s 732 mmHg 56%
    20:00 +29°C° 0.1 mm 5 m/s 732 mmHg 63%
    21:00 +28°C° 0 mm 4 m/s 732 mmHg 66%
    22:00 +27°C° 0 mm 3 m/s 732 mmHg 70%
    23:00 +26°C° 0 mm 2 m/s 732 mmHg 74%

    5 Juin, Vendredi

    Heure Température Précipitation Vent Pression Humidité
    00:00 +26°C° 0 mm 2 m/s 732 mmHg 75%
    01:00 +26°C° 0 mm 2 m/s 732 mmHg 76%
    02:00 +26°C° 0 mm 2 m/s 733 mmHg 77%
    03:00 +25°C° 1.1 mm 3 m/s 733 mmHg 78%
    04:00 +25°C° 1.1 mm 4 m/s 733 mmHg 79%
    05:00 +23°C° 1.1 mm 5 m/s 733 mmHg 80%
    06:00 +26°C° 0 mm 4 m/s 733 mmHg 76%
    07:00 +28°C° 0 mm 3 m/s 734 mmHg 71%
    08:00 +30°C° 0 mm 3 m/s 734 mmHg 66%
    09:00 +33°C° 0 mm 3 m/s 734 mmHg 59%
    10:00 +35°C° 0 mm 3 m/s 734 mmHg 52%
    11:00 +37°C° 0 mm 3 m/s 734 mmHg 45%
    12:00 +38°C° 0 mm 3 m/s 734 mmHg 41%
    13:00 +38°C° 0 mm 3 m/s 734 mmHg 38%
    14:00 +40°C° 0 mm 4 m/s 733 mmHg 34%
    15:00 +40°C° 0 mm 4 m/s 733 mmHg 37%
    16:00 +39°C° 0 mm 5 m/s 733 mmHg 40%
    17:00 +37°C° 0 mm 5 m/s 732 mmHg 42%
    18:00 +35°C° 0 mm 5 m/s 732 mmHg 47%
    19:00 +34°C° 0 mm 5 m/s 733 mmHg 52%
    20:00 +32°C° 0 mm 5 m/s 733 mmHg 56%
    21:00 +30°C° 0 mm 5 m/s 733 mmHg 59%
    22:00 +29°C° 0 mm 5 m/s 733 mmHg 62%
    23:00 +29°C° 0 mm 5 m/s 734 mmHg 65%

    6 Juin, Samedi

    Heure Température Précipitation Vent Pression Humidité
    00:00 +28°C° 0 mm 5 m/s 734 mmHg 68%
    01:00 +27°C° 0 mm 4 m/s 733 mmHg 71%
    02:00 +27°C° 0 mm 4 m/s 733 mmHg 74%
    03:00 +26°C° 0 mm 3 m/s 734 mmHg 76%
    04:00 +26°C° 0 mm 3 m/s 734 mmHg 78%
    05:00 +26°C° 0 mm 3 m/s 734 mmHg 80%
    06:00 +28°C° 0 mm 3 m/s 734 mmHg 72%
    07:00 +30°C° 0 mm 4 m/s 735 mmHg 65%
    08:00 +33°C° 0 mm 4 m/s 735 mmHg 57%
    09:00 +35°C° 0 mm 5 m/s 735 mmHg 51%
    10:00 +36°C° 0 mm 5 m/s 734 mmHg 46%
    11:00 +38°C° 0 mm 6 m/s 734 mmHg 41%
    12:00 +39°C° 0 mm 6 m/s 734 mmHg 39%
    13:00 +39°C° 0 mm 6 m/s 733 mmHg 38%
    14:00 +40°C° 0 mm 6 m/s 733 mmHg 37%
    15:00 +39°C° 0 mm 6 m/s 732 mmHg 39%
    16:00 +38°C° 0 mm 6 m/s 732 mmHg 41%
    17:00 +36°C° 0 mm 7 m/s 732 mmHg 42%
    18:00 +34°C° 0 mm 6 m/s 732 mmHg 48%
    19:00 +33°C° 0 mm 6 m/s 732 mmHg 54%
    20:00 +30°C° 0 mm 5 m/s 732 mmHg 60%
    21:00 +29°C° 0 mm 5 m/s 733 mmHg 63%
    22:00 +28°C° 0 mm 5 m/s 733 mmHg 65%
    23:00 +28°C° 0 mm 5 m/s 733 mmHg 68%
    Voir plus